Location: Sungai Ketit
(2.6833°N, 113.2333°E)
Time: 19:35:21
(UTC+00:00)

Cosmos 1725 Rocket - Pass Details

Date: 23 May 2024
Orbit: 962 x 989 km, 82.9° (Epoch: 19 June)

Event Time Altitude Azimuth Distance (km) Brightness Sun altitude
Rises 11:13:15 0° 1° (N) 3,682 7.3 -10.6°
Reaches altitude 10° 11:15:47 10° 3° (N) 2,737 6.6 -11.1°
Maximum altitude 11:22:02 72° 87° (E) 1,036 4.0 -12.6°
Drops below altitude 10° 11:28:19 10° 171° (S) 2,745 6.1 -14.0°
Sets 11:30:50 0° 172° (S) 3,693 6.7 -14.6°
